Time,TemperatureF,DewpointF,PressureIn,WindDirection,WindDirectionDegrees,WindSpeedMPH,WindSpeedGustMPH,Humidity,HourlyPrecipIn,Conditions,Clouds,dailyrainin,SoftwareType,DateUTC
2013-11-23 00:02:00,14.0,8.0,30.60,North,349,14.0,17.0,76,-99.99,,,-99.99,,2013-11-23 06:02:00,
2013-11-23 00:12:00,14.0,8.0,30.60,North,349,14.0,17.0,76,-99.99,,,-99.99,,2013-11-23 06:12:00,
2013-11-23 00:22:00,12.0,6.0,30.63,North,1,7.0,0.0,76,-99.99,,,-99.99,,2013-11-23 06:22:00,
2013-11-23 00:42:00,12.0,6.0,30.63,NNE,16,12.0,0.0,75,-99.99,,,-99.99,,2013-11-23 06:42:00,
2013-11-23 00:53:00,11.0,5.0,30.63,West,266,8.0,17.0,75,-99.99,,,-99.99,,2013-11-23 06:53:00,
2013-11-23 01:11:00,11.0,5.0,30.64,NNW,345,10.0,19.0,76,-99.99,,,-99.99,,2013-11-23 07:11:00,
2013-11-23 01:21:00,11.0,5.0,30.64,NNW,345,10.0,19.0,76,-99.99,,,-99.99,,2013-11-23 07:21:00,
2013-11-23 01:32:00,11.0,5.0,30.64,NNW,345,10.0,19.0,76,-99.99,,,-99.99,,2013-11-23 07:32:00,
2013-11-23 01:42:00,11.0,5.0,30.64,NNW,345,10.0,19.0,76,-99.99,,,-99.99,,2013-11-23 07:42:00,
2013-11-23 02:21:00,8.0,3.0,30.67,NNE,32,12.0,0.0,79,-99.99,,,-99.99,,2013-11-23 08:21:00,
2013-11-23 02:42:00,8.0,3.0,30.67,North,351,9.0,0.0,80,-99.99,,,-99.99,,2013-11-23 08:42:00,
2013-11-23 02:52:00,8.0,3.0,30.68,NNW,342,5.0,18.0,81,-99.99,,,-99.99,,2013-11-23 08:52:00,
2013-11-23 03:12:00,8.0,3.0,30.68,NNW,337,8.0,16.0,81,-99.99,,,-99.99,,2013-11-23 09:12:00,
2013-11-23 03:22:00,7.0,3.0,30.69,NE,42,7.0,14.0,82,-99.99,,,-99.99,,2013-11-23 09:22:00,
2013-11-23 03:33:00,7.0,3.0,30.69,NE,42,7.0,14.0,82,-99.99,,,-99.99,,2013-11-23 09:33:00,
2013-11-23 03:43:00,7.0,3.0,30.69,NE,42,7.0,14.0,82,-99.99,,,-99.99,,2013-11-23 09:43:00,
2013-11-23 03:54:00,6.0,2.0,30.69,NW,321,3.0,0.0,83,-99.99,,,-99.99,,2013-11-23 09:54:00,
2013-11-23 04:12:00,6.0,2.0,30.70,ENE,75,2.0,0.0,83,-99.99,,,-99.99,,2013-11-23 10:12:00,
2013-11-23 04:23:00,6.0,2.0,30.71,NNW,341,5.0,0.0,84,-99.99,,,-99.99,,2013-11-23 10:23:00,
2013-11-23 04:42:00,6.0,2.0,30.72,North,360,9.0,0.0,83,-99.99,,,-99.99,,2013-11-23 10:42:00,
2013-11-23 04:52:00,6.0,2.0,30.72,North,351,7.0,0.0,83,-99.99,,,-99.99,,2013-11-23 10:52:00,
2013-11-23 05:02:00,6.0,2.0,30.72,North,351,7.0,0.0,83,-99.99,,,-99.99,,2013-11-23 11:02:00,
2013-11-23 05:12:00,6.0,2.0,30.72,North,351,7.0,0.0,83,-99.99,,,-99.99,,2013-11-23 11:12:00,
2013-11-23 05:22:00,5.0,1.0,30.73,NNW,333,7.0,0.0,83,-99.99,,,-99.99,,2013-11-23 11:22:00,
2013-11-23 05:43:00,5.0,1.0,30.73,NW,322,7.0,0.0,84,-99.99,,,-99.99,,2013-11-23 11:43:00,
2013-11-23 05:52:00,5.0,1.0,30.76,WNW,284,4.0,0.0,84,-99.99,,,-99.99,,2013-11-23 11:52:00,
2013-11-23 06:02:00,5.0,1.0,30.76,WNW,284,4.0,0.0,84,-99.99,,,-99.99,,2013-11-23 12:02:00,
2013-11-23 06:12:00,5.0,1.0,30.76,WNW,284,4.0,0.0,84,-99.99,,,-99.99,,2013-11-23 12:12:00,
2013-11-23 06:22:00,5.0,2.0,30.76,NNW,337,7.0,0.0,85,-99.99,,,-99.99,,2013-11-23 12:22:00,
2013-11-23 06:32:00,5.0,2.0,30.76,NNW,337,7.0,0.0,85,-99.99,,,-99.99,,2013-11-23 12:32:00,
2013-11-23 06:42:00,5.0,2.0,30.76,NNW,337,7.0,0.0,85,-99.99,,,-99.99,,2013-11-23 12:42:00,
2013-11-23 06:52:00,4.0,1.0,30.78,NE,53,2.0,0.0,85,-99.99,,,-99.99,,2013-11-23 12:52:00,
2013-11-23 07:11:00,4.0,1.0,30.78,NE,45,4.0,0.0,85,-99.99,,,-99.99,,2013-11-23 13:11:00,
2013-11-23 07:22:00,3.0,0.0,30.80,NE,34,4.0,0.0,85,-99.99,,,-99.99,,2013-11-23 13:22:00,
2013-11-23 07:42:00,3.0,0.0,30.80,NW,326,4.0,0.0,85,-99.99,,,-99.99,,2013-11-23 13:42:00,
2013-11-23 07:52:00,3.0,0.0,30.80,NW,326,4.0,0.0,85,-99.99,,,-99.99,,2013-11-23 13:52:00,
2013-11-23 08:11:00,3.0,0.0,30.82,ENE,65,5.0,0.0,85,-99.99,,,-99.99,,2013-11-23 14:11:00,
2013-11-23 08:21:00,4.0,1.0,30.82,NE,34,1.0,0.0,85,-99.99,,,-99.99,,2013-11-23 14:21:00,
2013-11-23 08:32:00,4.0,1.0,30.82,NE,34,1.0,0.0,85,-99.99,,,-99.99,,2013-11-23 14:32:00,
2013-11-23 08:42:00,4.0,1.0,30.82,NE,34,1.0,0.0,85,-99.99,,,-99.99,,2013-11-23 14:42:00,
2013-11-23 08:52:00,5.0,1.0,30.84,NW,326,9.0,0.0,84,-99.99,,,-99.99,,2013-11-23 14:52:00,
2013-11-23 09:02:00,5.0,1.0,30.84,NW,326,9.0,0.0,84,-99.99,,,-99.99,,2013-11-23 15:02:00,
2013-11-23 09:11:00,5.0,1.0,30.84,NW,326,9.0,0.0,84,-99.99,,,-99.99,,2013-11-23 15:11:00,
2013-11-23 09:22:00,6.0,2.0,30.84,NNE,19,6.0,0.0,84,-99.99,,,-99.99,,2013-11-23 15:22:00,
2013-11-23 09:43:00,6.0,2.0,30.84,North,359,11.0,16.0,83,-99.99,,,-99.99,,2013-11-23 15:43:00,
2013-11-23 09:54:00,7.0,3.0,30.85,NNE,23,8.0,16.0,82,-99.99,,,-99.99,,2013-11-23 15:54:00,
2013-11-23 10:13:00,7.0,3.0,30.86,NNW,347,9.0,15.0,82,-99.99,,,-99.99,,2013-11-23 16:13:00,
2013-11-23 10:23:00,7.0,3.0,30.86,North,3,9.0,16.0,82,-99.99,,,-99.99,,2013-11-23 16:23:00,
2013-11-23 10:43:00,8.0,4.0,30.84,North,3,12.0,16.0,82,-99.99,,,-99.99,,2013-11-23 16:43:00,
2013-11-23 10:53:00,8.0,4.0,30.84,North,3,12.0,16.0,82,-99.99,,,-99.99,,2013-11-23 16:53:00,
2013-11-23 11:12:00,9.0,4.0,30.84,North,352,8.0,17.0,79,-99.99,,,-99.99,,2013-11-23 17:12:00,
2013-11-23 11:22:00,9.0,4.0,30.84,North,352,8.0,17.0,79,-99.99,,,-99.99,,2013-11-23 17:22:00,
2013-11-23 11:42:00,11.0,5.0,30.83,NNE,16,8.0,16.0,76,-99.99,,,-99.99,,2013-11-23 17:42:00,
2013-11-23 11:52:00,12.0,5.0,30.82,NNW,340,5.0,12.0,73,-99.99,,,-99.99,,2013-11-23 17:52:00,
2013-11-23 12:02:00,12.0,5.0,30.82,NNW,340,5.0,12.0,73,-99.99,,,-99.99,,2013-11-23 18:02:00,
2013-11-23 12:12:00,12.0,5.0,30.82,NNW,340,5.0,12.0,73,-99.99,,,-99.99,,2013-11-23 18:12:00,
2013-11-23 12:22:00,14.0,6.0,30.82,NNE,12,4.0,14.0,70,-99.99,,,-99.99,,2013-11-23 18:22:00,
2013-11-23 12:42:00,14.0,6.0,30.82,North,359,10.0,14.0,69,-99.99,,,-99.99,,2013-11-23 18:42:00,
2013-11-23 12:52:00,14.0,5.0,30.81,North,356,2.0,13.0,66,-99.99,,,-99.99,,2013-11-23 18:52:00,
2013-11-23 13:11:00,14.0,5.0,30.81,NW,323,6.0,15.0,66,-99.99,,,-99.99,,2013-11-23 19:11:00,
2013-11-23 13:22:00,15.0,6.0,30.81,North,5,3.0,12.0,66,-99.99,,,-99.99,,2013-11-23 19:22:00,
2013-11-23 13:32:00,15.0,6.0,30.81,North,5,3.0,12.0,66,-99.99,,,-99.99,,2013-11-23 19:32:00,
2013-11-23 13:42:00,15.0,6.0,30.81,North,5,3.0,12.0,66,-99.99,,,-99.99,,2013-11-23 19:42:00,
2013-11-23 13:52:00,16.0,5.0,30.80,NE,56,2.0,0.0,62,-99.99,,,-99.99,,2013-11-23 19:52:00,
2013-11-23 14:11:00,16.0,5.0,30.80,ENE,63,3.0,0.0,62,-99.99,,,-99.99,,2013-11-23 20:11:00,
2013-11-23 14:22:00,16.0,5.0,30.79,NNE,14,4.0,0.0,62,-99.99,,,-99.99,,2013-11-23 20:22:00,
2013-11-23 14:32:00,16.0,5.0,30.79,NNE,14,4.0,0.0,62,-99.99,,,-99.99,,2013-11-23 20:32:00,
2013-11-23 14:42:00,16.0,5.0,30.79,NNE,14,4.0,0.0,62,-99.99,,,-99.99,,2013-11-23 20:42:00,
2013-11-23 14:53:00,16.0,5.0,30.79,SSW,196,1.0,12.0,60,-99.99,,,-99.99,,2013-11-23 20:53:00,
2013-11-23 15:02:00,16.0,5.0,30.79,SSW,196,1.0,12.0,60,-99.99,,,-99.99,,2013-11-23 21:02:00,
2013-11-23 15:11:00,16.0,5.0,30.79,SSW,196,1.0,12.0,60,-99.99,,,-99.99,,2013-11-23 21:11:00,
2013-11-23 15:21:00,16.0,5.0,30.79,SSW,196,1.0,12.0,60,-99.99,,,-99.99,,2013-11-23 21:21:00,
2013-11-23 15:43:00,17.0,5.0,30.79,NE,34,6.0,0.0,59,-99.99,,,-99.99,,2013-11-23 21:43:00,
2013-11-23 15:53:00,17.0,5.0,30.79,NE,34,5.0,0.0,59,-99.99,,,-99.99,,2013-11-23 21:53:00,
2013-11-23 16:13:00,17.0,5.0,30.80,NNW,332,4.0,0.0,58,-99.99,,,-99.99,,2013-11-23 22:13:00,
2013-11-23 16:23:00,16.0,3.0,30.79,NNE,30,3.0,0.0,57,-99.99,,,-99.99,,2013-11-23 22:23:00,
2013-11-23 16:43:00,16.0,4.0,30.79,NE,36,2.0,0.0,58,-99.99,,,-99.99,,2013-11-23 22:43:00,
2013-11-23 16:53:00,16.0,4.0,30.79,NNE,15,5.0,0.0,59,-99.99,,,-99.99,,2013-11-23 22:53:00,
2013-11-23 17:02:00,16.0,4.0,30.79,NNE,15,5.0,0.0,59,-99.99,,,-99.99,,2013-11-23 23:02:00,
2013-11-23 17:12:00,16.0,4.0,30.79,NNE,15,5.0,0.0,59,-99.99,,,-99.99,,2013-11-23 23:12:00,
2013-11-23 17:21:00,13.0,3.0,30.78,NW,315,4.0,0.0,64,-99.99,,,-99.99,,2013-11-23 23:21:00,
2013-11-23 17:33:00,13.0,3.0,30.78,NW,315,4.0,0.0,64,-99.99,,,-99.99,,2013-11-23 23:33:00,
2013-11-23 17:42:00,13.0,3.0,30.78,NW,315,4.0,0.0,64,-99.99,,,-99.99,,2013-11-23 23:42:00,
2013-11-23 17:53:00,11.0,2.0,30.77,NE,48,0.0,0.0,66,-99.99,,,-99.99,,2013-11-23 23:53:00,
2013-11-23 18:11:00,8.0,0.0,30.77,West,274,0.0,0.0,69,-99.99,,,-99.99,,2013-11-24 00:11:00,
2013-11-23 18:21:00,7.0,0.0,30.77,West,274,0.0,0.0,71,-99.99,,,-99.99,,2013-11-24 00:21:00,
2013-11-23 18:32:00,7.0,0.0,30.77,West,274,0.0,0.0,71,-99.99,,,-99.99,,2013-11-24 00:32:00,
2013-11-23 18:42:00,7.0,0.0,30.77,West,274,0.0,0.0,71,-99.99,,,-99.99,,2013-11-24 00:42:00,
2013-11-23 18:52:00,7.0,0.0,30.76,West,280,0.0,0.0,74,-99.99,,,-99.99,,2013-11-24 00:52:00,
2013-11-23 19:02:00,7.0,0.0,30.76,West,280,0.0,0.0,74,-99.99,,,-99.99,,2013-11-24 01:02:00,
2013-11-23 19:11:00,7.0,0.0,30.76,West,280,0.0,0.0,74,-99.99,,,-99.99,,2013-11-24 01:11:00,
2013-11-23 19:22:00,5.0,-1.0,30.77,WSW,241,0.0,0.0,76,-99.99,,,-99.99,,2013-11-24 01:22:00,
2013-11-23 19:42:00,5.0,0.0,30.77,WSW,241,0.0,0.0,78,-99.99,,,-99.99,,2013-11-24 01:42:00,
2013-11-23 19:53:00,5.0,-1.0,30.77,WSW,241,0.0,0.0,77,-99.99,,,-99.99,,2013-11-24 01:53:00,
2013-11-23 20:01:00,5.0,-1.0,30.77,WSW,241,0.0,0.0,77,-99.99,,,-99.99,,2013-11-24 02:01:00,
2013-11-23 20:12:00,5.0,-1.0,30.77,WSW,241,0.0,0.0,77,-99.99,,,-99.99,,2013-11-24 02:12:00,
2013-11-23 20:22:00,5.0,-1.0,30.76,WSW,241,0.0,0.0,76,-99.99,,,-99.99,,2013-11-24 02:22:00,
2013-11-23 20:32:00,5.0,-1.0,30.76,WSW,241,0.0,0.0,76,-99.99,,,-99.99,,2013-11-24 02:32:00,
2013-11-23 20:42:00,5.0,-1.0,30.76,WSW,241,0.0,0.0,76,-99.99,,,-99.99,,2013-11-24 02:42:00,
2013-11-23 20:52:00,4.0,-2.0,30.76,West,274,0.0,0.0,75,-99.99,,,-99.99,,2013-11-24 02:52:00,
2013-11-23 21:02:00,4.0,-2.0,30.76,West,274,0.0,0.0,75,-99.99,,,-99.99,,2013-11-24 03:02:00,
2013-11-23 21:11:00,4.0,-2.0,30.76,West,274,0.0,0.0,75,-99.99,,,-99.99,,2013-11-24 03:11:00,
2013-11-23 21:22:00,4.0,-1.0,30.76,WSW,258,0.0,0.0,79,-99.99,,,-99.99,,2013-11-24 03:22:00,
2013-11-23 21:43:00,4.0,-2.0,30.76,WSW,257,0.0,0.0,77,-99.99,,,-99.99,,2013-11-24 03:43:00,
2013-11-23 21:53:00,4.0,-1.0,30.74,WSW,257,0.0,0.0,78,-99.99,,,-99.99,,2013-11-24 03:53:00,
2013-11-23 22:02:00,-999.0,-99.9,30.75,SE,145,0.0,0.0,-999,-99.99,,,-99.99,,2013-11-24 04:02:00,
2013-11-23 22:13:00,3.0,-2.0,30.75,SE,145,0.0,0.0,78,-99.99,,,-99.99,,2013-11-24 04:13:00,
2013-11-23 22:23:00,2.0,-3.0,30.75,SSW,210,0.0,0.0,80,-99.99,,,-99.99,,2013-11-24 04:23:00,
2013-11-23 22:42:00,2.0,-3.0,30.74,SSW,210,0.0,0.0,79,-99.99,,,-99.99,,2013-11-24 04:42:00,
2013-11-23 22:53:00,2.0,-2.0,30.74,SSE,153,0.0,0.0,82,-99.99,,,-99.99,,2013-11-24 04:53:00,
2013-11-23 23:12:00,2.0,-2.0,30.74,SSE,152,0.0,0.0,82,-99.99,,,-99.99,,2013-11-24 05:12:00,
2013-11-23 23:22:00,1.0,-3.0,30.73,SSE,157,0.0,0.0,83,-99.99,,,-99.99,,2013-11-24 05:22:00,
2013-11-23 23:33:00,1.0,-3.0,30.73,SSE,157,0.0,0.0,83,-99.99,,,-99.99,,2013-11-24 05:33:00,
2013-11-23 23:43:00,1.0,-3.0,30.73,SSE,157,0.0,0.0,83,-99.99,,,-99.99,,2013-11-24 05:43:00,
2013-11-23 23:53:00,1.0,-3.0,30.73,SSE,157,0.0,0.0,83,-99.99,,,-99.99,,2013-11-24 05:53:00,